This demonstration page uses our WeatherBlox Daily Observations layout. Learn more.

Left ArrowRight Arrow

Hourly Observations for January 19, 2015

Temp ( °F °C ) Dew Point ( °F °C ) Humidity (%) Winds ( mph kmh ) Pressure ( in mb ) Visibility ( mi km ) Precip ( " mm )
12:16 am 00:16 Clear 30 -1 N/A N/A SW 3 6 30.09 1019 10 16.0934 N/A
12:35 am 00:35 Clear 30 -1 N/A N/A Calm 30.09 1019 10 16.0934 N/A
12:55 am 00:55 Clear 30 -1 N/A N/A WSW 3 6 30.09 1019 10 16.0934 N/A
1:15 am 01:15 Clear 28 -2 N/A N/A Calm 30.09 1019 7 11.26538 N/A
1:35 am 01:35 Clear 28 -2 N/A N/A Calm 30.09 1019 7 11.26538 N/A
1:55 am 01:55 Clear 28 -2 N/A N/A Calm 30.09 1019 7 11.26538 N/A
2:15 am 02:15 Clear 28 -2 N/A N/A Calm 30.09 1019 7 11.26538 N/A
2:35 am 02:35 Clear 28 -2 N/A N/A Calm 30.09 1019 7 11.26538 N/A
2:56 am 02:56 Clear 28 -2 N/A N/A Calm 30.09 1019 7 11.26538 N/A
3:15 am 03:15 Clear 28 -2 N/A N/A Calm 30.09 1019 5 8.0467 N/A
3:35 am 03:35 Clear 28 -2 N/A N/A Calm 30.09 1019 5 8.0467 N/A
3:55 am 03:55 Clear 28 -2 N/A N/A Calm 30.09 1019 5 8.0467 N/A
4:15 am 04:15 Clear 27 -3 N/A N/A Calm 30.06 1018 7 11.26538 N/A
4:36 am 04:36 Clear 27 -3 N/A N/A ESE 3 6 30.06 1018 5 8.0467 N/A
4:55 am 04:55 Clear 27 -3 N/A N/A SSE 5 7 30.06 1018 5 8.0467 N/A
5:15 am 05:15 Clear 27 -3 N/A N/A S 5 7 30.06 1018 4 6.43736 N/A
5:36 am 05:36 Clear 28 -2 N/A N/A S 5 7 30.06 1018 4 6.43736 N/A
5:55 am 05:55 Clear 28 -2 N/A N/A SSE 3 6 30.06 1018 4 6.43736 N/A
6:15 am 06:15 Clear 27 -3 N/A N/A SSE 3 6 30.06 1018 3 4.82802 N/A
6:35 am 06:35 Clear 27 -3 N/A N/A Calm 30.06 1018 4 6.43736 N/A
6:55 am 06:55 Clear 27 -3 N/A N/A Calm 30.06 1018 3 4.82802 N/A
7:16 am 07:16 Mostly Cloudy 27 -3 N/A N/A Calm 30.06 1018 1.25 2.011675 N/A
7:35 am 07:35 Clear 25 -4 N/A N/A Calm 30.09 1019 3 4.82802 N/A
7:55 am 07:55 Clear 27 -3 N/A N/A Calm 30.09 1019 3 4.82802 N/A
8:15 am 08:15 Sunny 27 -3 N/A N/A Calm 30.09 1019 3 4.82802 N/A
8:35 am 08:35 Sunny 27 -3 N/A N/A Calm 30.09 1019 2.5 4.02335 N/A
8:55 am 08:55 Sunny 28 -2 N/A N/A SSE 3 6 30.09 1019 2.5 4.02335 N/A
9:15 am 09:15 Sunny 30 -1 N/A N/A S 3 6 30.09 1019 3 4.82802 N/A
9:35 am 09:35 Sunny 32 0 N/A N/A S 3 6 30.09 1019 4 6.43736 N/A
9:55 am 09:55 Sunny 32 0 N/A N/A Calm 30.09 1019 5 8.0467 N/A
10:15 am 10:15 Sunny 34 1 34 1 100 100 S 5 7 30.09 1019 10 16.0934 N/A
10:36 am 10:36 Sunny 36 2 36 2 100 100 S 6 9 30.09 1019 10 16.0934 N/A
10:55 am 10:55 Sunny 37 3 34 1 87 87 S 7 11 30.09 1019 10 16.0934 N/A
11:15 am 11:15 Sunny 37 3 28 -2 70 70 S 7 11 30.09 1019 10 16.0934 N/A
11:35 am 11:35 Sunny 39 4 28 -2 65 65 S 5 7 30.06 1018 10 16.0934 N/A
11:55 am 11:55 Sunny 39 4 27 -3 61 61 SSW 7 11 30.06 1018 10 16.0934 N/A
12:15 pm 12:15 Sunny 39 4 27 -3 61 61 S 6 9 30.03 1017 10 16.0934 N/A
12:35 pm 12:35 Sunny 41 5 28 -2 61 61 SSW 6 9 30.03 1017 10 16.0934 N/A
12:55 pm 12:55 Sunny 41 5 28 -2 61 61 S 6 9 30.03 1017 10 16.0934 N/A
1:16 pm 13:16 Sunny 43 6 27 -3 53 53 S 6 9 30 1016 10 16.0934 N/A
1:35 pm 13:35 Sunny 43 6 27 -3 53 53 S 6 9 30 1016 10 16.0934 N/A
1:55 pm 13:55 Sunny 43 6 25 -4 49 49 S 3 6 30 1016 10 16.0934 N/A
2:16 pm 14:16 Sunny 45 7 25 -4 46 46 Calm 30 1016 10 16.0934 N/A
2:35 pm 14:35 Sunny 45 7 25 -4 46 46 Calm 29.97 1015 10 16.0934 N/A
2:55 pm 14:55 Sunny 46 8 23 -5 40 40 Calm 29.97 1015 10 16.0934 N/A
3:15 pm 15:15 Sunny 46 8 23 -5 40 40 Calm 29.97 1015 10 16.0934 N/A
3:35 pm 15:35 Sunny 45 7 25 -4 46 46 Calm 29.97 1015 10 16.0934 N/A
3:55 pm 15:55 Sunny 45 7 25 -4 46 46 E 5 7 29.97 1015 10 16.0934 N/A
4:15 pm 16:15 Sunny 45 7 25 -4 46 46 Calm 29.97 1015 10 16.0934 N/A
4:35 pm 16:35 Sunny 45 7 23 -5 42 42 Calm 29.97 1015 10 16.0934 N/A
4:55 pm 16:55 Sunny 43 6 25 -4 49 49 Calm 29.97 1015 10 16.0934 N/A
5:15 pm 17:15 Sunny 43 6 25 -4 49 49 Calm 29.97 1015 10 16.0934 N/A
5:35 pm 17:35 Sunny 43 6 27 -3 53 53 Calm 29.97 1015 10 16.0934 N/A
5:55 pm 17:55 Clear 39 4 27 -3 61 61 SE 3 6 29.97 1015 10 16.0934 N/A
6:15 pm 18:15 Clear 39 4 25 -4 56 56 ESE 3 6 29.97 1015 10 16.0934 N/A
6:36 pm 18:36 Clear 36 2 25 -4 65 65 SE 3 6 30 1016 10 16.0934 N/A
6:55 pm 18:55 Clear 36 2 25 -4 65 65 Calm 30 1016 10 16.0934 N/A
7:15 pm 19:15 Clear 34 1 25 -4 70 70 Calm 30 1016 10 16.0934 N/A
7:36 pm 19:36 Clear 34 1 27 -3 75 75 E 3 6 30 1016 10 16.0934 N/A
7:55 pm 19:55 Clear 32 0 27 -3 80 80 NE 5 7 30 1016 10 16.0934 N/A
8:15 pm 20:15 Clear 32 0 27 -3 80 80 NE 5 7 30 1016 10 16.0934 N/A
8:36 pm 20:36 Clear 32 0 32 0 100 100 Calm 30 1016 10 16.0934 N/A
8:55 pm 20:55 Clear 30 -1 30 -1 100 100 Calm 30 1016 10 16.0934 N/A
9:15 pm 21:15 Clear 32 0 30 -1 93 93 Calm 30 1016 10 16.0934 N/A
9:36 pm 21:36 Clear 32 0 32 0 100 100 Calm 30 1016 10 16.0934 N/A
9:55 pm 21:55 Clear 32 0 32 0 100 100 NNE 3 6 30 1016 10 16.0934 N/A
10:15 pm 22:15 Partly Cloudy 32 0 32 0 100 100 N 5 7 30 1016 10 16.0934 N/A
10:35 pm 22:35 Mostly Cloudy 32 0 32 0 100 100 N 7 11 30 1016 10 16.0934 N/A
10:55 pm 22:55 Partly Cloudy 34 1 34 1 100 100 NNE 8 13 30 1016 10 16.0934 N/A
11:15 pm 23:15 Partly Cloudy 34 1 34 1 100 100 NE 5 7 29.97 1015 10 16.0934 N/A
11:35 pm 23:35 Partly Cloudy 34 1 34 1 100 100 NNE 9 15 29.97 1015 10 16.0934 N/A
11:55 pm 23:55 Partly Cloudy 34 1 34 1 100 100 NNE 6 9 29.97 1015 10 16.0934 N/A

Powered by AerisWeather